Starlink 30972

operational
NORAD ID: 58721 Int'l Des: 2024-002 Owner: SPXS Country: US Constellation: starlink
LEOCIRCULAR

Starlink 30972について

説明を読み込み中...

リアルタイム位置

3D地球を読み込み中...

次回通過

高度履歴

Altitude vs Time

uPlot chart will show altitude changes over time

軌道要素

1 58721U 24002S 25304.86935329 .00000065 00000-0 14331-4 0 9997
2 58721 53.1591 108.1979 0001584 87.8071 272.3111 15.30184031102290
Epoch: Oct 31, 2025 • Age: 36 hours

現在のステータス

高度 494.8 km
速度 7.62 km/s
衛星直下点 -53.08°S, 165.62°W
打ち上げ日 Jan 3, 2024
運用期間 1.8 years
タイプ internet

技術仕様

分類 Payload
質量 730.00 kg
乾燥質量 700.00 kg
総質量 730.00 kg
長さ 0.30 m
直径 4.10 m
スパン 29.00 m
形状 Box + pan
製造者 SPXS
バスタイプ Starlink V2M
フェーズステータス In Orbit
所有者/国 SPXS/US

大規模コンステレーション

Loading constellations...